Flag for Germany Weather past 2 weeks in Rotenburg (Wümme), Lower Saxony, Germany

Now
39 °F

Passing clouds.


Feels Like: 34 °F
Forecast: 36 / 41 °F
Wind: 7 mph from Northwest

Location: Bremen

Current Time: Jan 26, 2015 at 10:08:43 PM

Latest Report: Jan 26, 2015 at 9:00 PM


Visibility: 19 mi

Pressure: 29.94 "Hg

Humidity: 88%

Dew point: 36 °F

Location of Rotenburg (Wümme)Location

Historic Weather in Rotenburg (Wümme) — Graph

°F

Rotenburg (Wümme) temperature yesterday

Maximum temperature yesterday: 40 °F (at 4:00 PM)
Minimum temperature yesterday: 26 °F (at 1:00 AM)
Average temperature yesterday: 34 °F

Past Weeks' High & Low Weather Summary

 TemperatureHumidityPressure
High50 °F (Jan 13, 9:00 AM)100% (Jan 20, 12:00 AM)30.33 "Hg (Jan 20, 12:00 AM)
Low22 °F (Jan 21, 8:00 AM)70% (Jan 16, 1:00 AM)29.35 "Hg (Jan 15, 3:00 PM)
Average36 °F90%29.92 "Hg
* Reported Jan 11 9:00 PM — Jan 26 9:00 PM, Rotenburg (Wümme), Weather by CustomWeather, © 2014

Note: Actual official high and low records may vary slightly from our data, if they occured in-between our weather recording intervals... More about our weather records

Advertising

Rotenburg (Wümme) weather history for previous 24 hours

 ConditionsComfort  
Time TempWeatherWind HumidityBarometerVisibility
9:00 PM
Jan 26
39 °FPassing clouds.7 mph88%29.94 "Hg19 mi
8:00 PM41 °FOvercast.9 mph91%29.93 "Hg14 mi
7:00 PM43 °FLow clouds.8 mph89%29.92 "Hg9 mi
6:00 PM42 °FDrizzle. Low clouds.6 mph97%29.91 "Hg2 mi
5:00 PM40 °FRain. Low clouds.7 mph97%29.91 "Hg2 mi
4:00 PM40 °FDrizzle. Low clouds.7 mph97%29.91 "Hg2 mi
3:00 PM39 °FDrizzle. Low clouds.7 mph98%29.93 "Hg2 mi
2:00 PM39 °FChilly.7 mph97%29.96 "HgN/A
1:00 PM39 °FDrizzle. Low clouds.6 mph97%29.99 "Hg2 mi
12:00 PM38 °FChilly.5 mph97%30.03 "HgN/A
11:00 AM37 °FRain. Low clouds.5 mph98%30.06 "Hg2 mi
10:00 AM37 °FRain. Low clouds.6 mph97%30.09 "Hg2 mi
9:00 AM37 °FRain. Low clouds.6 mph98%30.10 "Hg1 mi
8:00 AM37 °FRain. Low clouds.6 mph98%30.12 "Hg2 mi
7:00 AM37 °FRain. Low clouds.6 mph97%30.14 "Hg1 mi
6:00 AM37 °FChilly.6 mph98%30.16 "HgN/A
5:00 AM37 °FFog.5 mph98%30.18 "Hg1 mi
3:00 AM36 °FFog.3 mph98%30.23 "Hg2 mi
2:00 AM36 °FFog.3 mph98%30.25 "Hg2 mi
1:00 AM36 °FFog.3 mph99%30.26 "Hg2 mi
12:00 AM37 °FLow clouds.3 mph99%30.28 "Hg2 mi
11:00 PM
Jan 25
37 °FLight rain. Low clouds.3 mph98%30.29 "Hg2 mi
Weather by CustomWeather, © 2014

See weather overviewHow to use our weather pages